[[{"header":{"parameterUnit":"m.s-1","parameterCategory":1,"la1":30.2991,"la2":30.254,"lo1":-89.0895,"lo2":-89.0444,"dy":0.0017,"dx":0.0017,"nx":28,"ny":28,"refTime":"2025-08-23T09:00:00:Z","depth":0,"parameterNumber":2,"parameterNumberName":"U-component_of_WINDS"},"data":[0,0,0,0,0,0,0,0,0,0,0,0,0,0,0,0,0,0,0,0,0,0,0,0,0,0,0,0,0,0,0,0,0,0,0,0,0,0,0,0,0,0,0,0,0,0,0,0,0,0,0,0,0,0,0,0,0,0,2.1876,2.1877,0,2.1972,2.1973,2.1974,2.1974,2.1973,2.1972,2.1971,2.2076,2.2079,2.2083,0,0,0,0,0,0,0,0,0,0,0,0,0,2.1699,2.1702,2.1876,2.1877,2.1878,2.1972,2.1973,2.1974,2.1975,2.1973,2.1972,2.197,2.2074,2.2079,2.2084,0,0,0,0,0,0,0,0,0,0,0,0,0,2.1784,2.1703,2.1875,2.1889,2.1891,2.1971,2.1973,2.1975,2.1975,2.1973,2.1971,2.1969,2.2073,2.2079,2.2084,2.2159,0,0,2.2103,2.2105,0,0,0,0,0,0,0,0,2.1779,2.179,2.1886,2.1888,2.1891,2.1959,2.1949,2.2037,2.1975,2.1943,2.1971,2.1968,2.2039,2.2047,2.207,2.2164,2.2168,2.2103,2.2107,2.2109,2.2111,0,0,0,0,0,0,0,2.1773,2.1786,2.1914,2.1887,2.189,2.1893,2.1903,2.1966,2.2001,2.1946,2.1946,2.1957,2.204,2.2064,2.2072,2.217,2.2103,2.2108,2.2112,2.2114,2.2333,2.2335,0,0,0,0,0,0,2.1763,2.1781,2.1911,2.1917,2.1829,2.1898,2.1909,2.1939,2.2,2.2007,2.1959,2.1957,2.2055,2.2065,2.2076,2.2169,2.2109,2.2115,2.2118,2.2331,2.2333,2.2336,0,0,0,0,0,0,2.1759,2.1775,2.1907,2.1849,2.1866,2.1903,2.1937,2.1942,2.1966,2.201,2.2016,2.1977,2.2054,2.2068,2.2138,2.2172,2.2118,2.2123,2.2328,2.2331,2.2334,2.2353,0,0,0,0,0,0,2.1754,2.1773,2.18,2.1849,2.1869,2.1966,2.1939,2.1945,2.1976,2.1974,2.2028,2.2035,2.2053,2.213,2.2144,2.2179,2.2128,2.2325,2.2329,2.2333,2.235,2.2357,2.2363,0,0,0,0,0,2.1748,2.1803,2.1802,2.1817,2.1903,2.1967,2.1979,2.1996,2.1978,2.2007,2.2035,2.2034,2.2166,2.2137,2.2153,2.2191,2.2323,2.2328,2.2333,2.2347,2.2356,2.2363,0,0,0,0,0,0,2.1758,2.1809,2.1809,2.188,2.1919,2.1967,2.2004,2.2005,2.2051,2.2048,2.207,2.2083,2.2153,2.2179,2.2146,2.2267,2.2243,2.2251,2.2248,2.2256,2.2263,2.2255,2.2133,0,0,0,0,0,2.1768,2.1814,2.1857,2.1917,2.1936,2.1967,2.1995,2.2006,2.2048,2.2065,2.2098,2.2141,2.2192,2.2226,2.2275,2.2354,2.2367,2.2388,2.2395,2.24,2.2407,2.2453,2.2463,2.2352,2.2352,2.2352,0,0,2.1791,2.1824,2.1852,2.192,2.1951,2.2,2.198,2.2033,2.2071,2.2073,2.2142,2.2168,2.2218,2.2293,2.2328,2.2317,2.2441,2.2406,2.241,2.2415,2.2459,2.2469,2.2479,2.2356,2.2355,2.2354,0,0,2.1856,2.1886,2.1939,2.1971,2.2018,2.2038,2.2051,2.2099,2.2116,2.2185,2.2188,2.2235,2.2322,2.2358,2.2387,2.2469,2.247,2.2484,2.2519,2.2563,2.2571,2.2579,2.2609,2.262,2.2491,2.2492,2.2492,0,2.1878,2.195,2.1967,2.2019,2.205,2.2053,2.2109,2.214,2.2202,2.2224,2.221,2.2321,2.2355,2.2439,2.2459,2.2482,2.25,2.2478,2.2568,2.2576,2.2584,2.2613,2.2624,2.2493,2.2493,2.2493,2.2493,0,2.1976,2.2027,2.2064,2.2122,2.2157,2.2211,2.2238,2.2272,2.228,2.2302,2.2374,2.2414,2.2473,2.2494,2.2502,2.258,2.2572,2.2563,2.2539,2.2596,2.2624,2.2635,2.2495,2.2495,2.2494,2.2494,0,0,2.205,2.2117,2.213,2.2158,2.2211,2.2251,2.2307,2.2362,2.2392,2.2435,2.2484,2.2558,2.2551,2.2584,2.2598,2.2636,2.27,2.2623,2.2624,2.2636,2.279,2.2796,2.2809,2.2701,2.2703,2.2704,2.2786,0,2.2122,2.2218,2.2235,2.232,2.2368,2.2373,2.2422,2.2461,2.2484,2.253,2.2557,2.2609,2.2595,2.2615,2.2653,2.2683,2.2731,2.2678,2.2748,2.275,2.2735,2.2823,2.283,2.2905,2.2797,2.2799,2.28,0,2.2218,2.2263,2.2352,2.24,2.2421,2.2464,2.2517,2.256,2.2606,2.2621,2.2659,2.2668,2.2728,2.2701,2.2786,2.275,2.278,2.2799,2.2803,2.281,2.2779,2.2834,2.2929,2.294,2.2817,2.2816,2.2815,0,2.2264,2.2347,2.2411,2.2434,2.2491,2.2522,2.2548,2.2592,2.2625,2.2672,2.2694,2.2749,2.2779,2.2822,2.2847,2.2824,2.2931,2.2905,2.2946,2.2945,2.2968,2.2966,2.307,2.2987,2.2986,2.2986,2.2986,0,2.2343,2.2398,2.2432,2.2472,2.2534,2.2555,2.2617,2.2643,2.2682,2.2729,2.2737,2.2781,2.2811,2.286,2.288,2.2948,2.2962,2.2976,2.2981,2.2976,2.2974,2.2996,2.2992,2.2989,2.2989,2.2988,2.2987,0,2.2405,2.243,2.2501,2.2549,2.2563,2.2607,2.265,2.269,2.2713,2.2773,2.2788,2.2825,2.2884,2.2912,2.2985,2.2999,2.3076,2.3078,2.306,2.3062,2.3102,2.3098,2.3223,2.3242,2.3146,2.3146,2.3147,0,2.2453,2.2495,2.2549,2.258,2.2606,2.2656,2.2689,2.2712,2.2747,2.2803,2.2837,2.2895,2.2943,2.3037,2.3072,2.3128,2.3132,2.3172,2.314,2.3134,2.3133,2.313,2.3136,2.3177,2.3178,2.3179,2.318,0,2.2537,2.2548,2.2595,2.2647,2.2686,2.2728,2.277,2.2795,2.2825,2.2865,2.2923,2.296,2.3035,2.3093,2.3152,2.3182,2.3187,2.3189,2.3202,2.3197,2.3185,2.3193,2.3076,2.3186,2.3186,2.3185,2.3185,2.3185,2.2595,2.2633,2.2676,2.2729,2.2763,2.2802,2.2842,2.287,2.2919,2.298,2.2991,2.3054,2.3102,2.3181,2.3212,2.3264,2.3255,2.3273,2.3278,2.3282,2.3284,2.3177,2.3275,2.3275,2.3274,2.3274,2.3274,0,2.268,2.2708,2.2756,2.2814,2.2856,2.2855,2.2902,2.2937,2.2992,2.3035,2.3081,2.315,2.3208,2.3248,2.3306,2.334,2.3344,2.3355,2.3353,2.336,2.3288,2.3272,2.3351,2.3351,2.3351,2.3351,2.3351,2.3351,2.2729,2.2794,2.281,2.2893,2.2922,2.2982,2.3009,2.3046,2.308,2.3156,2.3203,2.3228,2.3271,2.3333,2.3386,2.3397,2.3418,2.3429,2.344,2.3373,2.3365,2.3357,2.3341,2.3434,2.3434,2.3507,2.3508,2.3509]},{"header":{"parameterUnit":"m.s-1","parameterCategory":1,"la1":30.2991,"la2":30.254,"lo1":-89.0895,"lo2":-89.0444,"dy":0.0017,"dx":0.0017,"nx":28,"ny":28,"refTime":"2025-08-23T09:00:00:Z","depth":0,"parameterNumber":3,"parameterNumberName":"V-component_of_WINDS"},"data":[0,0,0,0,0,0,0,0,0,0,0,0,0,0,0,0,0,0,0,0,0,0,0,0,0,0,0,0,0,0,0,0,0,0,0,0,0,0,0,0,0,0,0,0,0,0,0,0,0,0,0,0,0,0,0,0,0,0,1.2089,1.209,0,1.2188,1.2189,1.219,1.2119,1.2116,1.2112,1.2109,1.2211,1.2217,1.2222,0,0,0,0,0,0,0,0,0,0,0,0,0,1.1835,1.184,1.2089,1.209,1.2091,1.2188,1.2189,1.2191,1.2119,1.2115,1.2112,1.2108,1.2209,1.2216,1.2223,0,0,0,0,0,0,0,0,0,0,0,0,0,1.1941,1.1842,1.2088,1.2067,1.2066,1.2188,1.2189,1.2191,1.212,1.2115,1.2111,1.2106,1.2207,1.2215,1.2224,1.2371,0,0,1.225,1.2253,0,0,0,0,0,0,0,0,1.1935,1.195,1.2069,1.2069,1.2068,1.2136,1.2137,1.2251,1.2121,1.21,1.2109,1.2104,1.219,1.22,1.2229,1.2376,1.238,1.225,1.2255,1.2259,1.2261,0,0,0,0,0,0,0,1.1928,1.1946,1.2128,1.2071,1.207,1.2052,1.2062,1.2158,1.217,1.2101,1.2096,1.2109,1.2189,1.2221,1.223,1.2382,1.225,1.2258,1.2263,1.2266,1.2651,1.2656,0,0,0,0,0,0,1.1923,1.194,1.2125,1.2131,1.1989,1.206,1.2071,1.2119,1.2169,1.2172,1.2113,1.2105,1.2208,1.2221,1.2234,1.2407,1.2259,1.2267,1.2272,1.2646,1.2652,1.2658,0,0,0,0,0,0,1.1917,1.194,1.2121,1.2034,1.2056,1.207,1.2124,1.2124,1.2155,1.2178,1.218,1.2143,1.2205,1.2222,1.2337,1.241,1.2271,1.2279,1.264,1.2648,1.2655,1.2757,0,0,0,0,0,0,1.1911,1.1938,1.1995,1.2036,1.2061,1.2223,1.2129,1.2129,1.217,1.2161,1.2207,1.221,1.2203,1.2324,1.2345,1.2419,1.2285,1.2633,1.2643,1.2652,1.2747,1.2767,1.2784,0,0,0,0,0,1.1902,1.2021,1.1999,1.2021,1.2132,1.2228,1.2242,1.2231,1.2176,1.2233,1.2247,1.2208,1.2399,1.2337,1.2359,1.2437,1.2629,1.2641,1.2652,1.2739,1.2763,1.2784,0,0,0,0,0,0,1.1989,1.2026,1.2002,1.2138,1.218,1.2215,1.2287,1.2258,1.2316,1.2305,1.2289,1.23,1.242,1.244,1.2371,1.258,1.2505,1.2521,1.2563,1.2586,1.2605,1.2597,1.2292,0,0,0,0,0,1.2024,1.2099,1.2127,1.2244,1.2266,1.2273,1.2314,1.2302,1.2345,1.2363,1.2385,1.2428,1.2497,1.2543,1.2608,1.275,1.2757,1.2814,1.2832,1.2848,1.2862,1.2935,1.296,1.2696,1.2695,1.2695,0,0,1.2097,1.2127,1.2175,1.2262,1.2293,1.237,1.2289,1.2374,1.243,1.2376,1.2485,1.2503,1.2549,1.2677,1.2735,1.2698,1.2936,1.2862,1.2874,1.288,1.2949,1.2974,1.2996,1.2703,1.2702,1.2701,0,0,1.2269,1.23,1.24,1.2432,1.248,1.2483,1.2507,1.2547,1.2556,1.2665,1.2625,1.2691,1.2812,1.2846,1.2879,1.3061,1.3026,1.3082,1.3179,1.3251,1.3271,1.329,1.3352,1.3375,1.3097,1.3097,1.3097,0,1.2354,1.2469,1.2454,1.2542,1.258,1.2534,1.2633,1.2666,1.2733,1.276,1.2717,1.2865,1.2893,1.3027,1.3071,1.31,1.3125,1.3077,1.327,1.3288,1.3305,1.3364,1.3388,1.3103,1.3103,1.3102,1.3101,0,1.2569,1.2649,1.2723,1.2788,1.2835,1.2928,1.2927,1.2976,1.2959,1.2967,1.3077,1.3109,1.3178,1.3209,1.3195,1.334,1.3315,1.3272,1.3195,1.3336,1.3392,1.3415,1.3112,1.311,1.3108,1.3107,0,0,1.28,1.2854,1.2881,1.2909,1.2957,1.3018,1.3108,1.3175,1.3216,1.3264,1.3337,1.3439,1.3398,1.3435,1.3424,1.3487,1.3625,1.3435,1.3436,1.3467,1.3785,1.3816,1.3843,1.3603,1.3607,1.3611,1.378,0,1.2973,1.3129,1.3118,1.3266,1.3337,1.3293,1.3371,1.3409,1.3417,1.3479,1.3488,1.3559,1.3501,1.3523,1.3584,1.3596,1.3688,1.3584,1.367,1.3673,1.3658,1.3872,1.3906,1.4064,1.3802,1.3805,1.3808,0,1.3196,1.3249,1.3403,1.3438,1.3468,1.3538,1.3597,1.3657,1.3698,1.37,1.374,1.3717,1.3806,1.3728,1.3849,1.3778,1.3812,1.3823,1.3829,1.3836,1.3748,1.3882,1.4114,1.4137,1.3843,1.384,1.3837,0,1.3345,1.3456,1.3562,1.3587,1.3631,1.3681,1.3702,1.3738,1.3778,1.3829,1.3855,1.3917,1.395,1.3997,1.3991,1.3935,1.4113,1.4035,1.4115,1.4115,1.4154,1.4151,1.4393,1.4179,1.4179,1.4179,1.4178,0,1.3538,1.3634,1.3629,1.3695,1.3799,1.3785,1.3889,1.3904,1.3936,1.4001,1.3968,1.403,1.4018,1.408,1.4076,1.4175,1.4191,1.4193,1.419,1.4195,1.4195,1.4217,1.4205,1.4185,1.4183,1.4182,1.4181,0,1.3723,1.3724,1.3836,1.3868,1.3878,1.3954,1.398,1.4041,1.4046,1.413,1.4149,1.4157,1.4227,1.4225,1.4307,1.4303,1.4424,1.441,1.4411,1.4407,1.4486,1.4478,1.4749,1.4783,1.4549,1.4551,1.4553,0,1.3846,1.3918,1.3957,1.3998,1.4022,1.4089,1.4129,1.4118,1.4161,1.4211,1.4265,1.4332,1.4385,1.45,1.4513,1.4574,1.4559,1.465,1.4568,1.4569,1.4558,1.4553,1.4558,1.4665,1.4668,1.467,1.4672,0,1.4062,1.4058,1.4117,1.4177,1.4225,1.4272,1.4314,1.435,1.4342,1.4392,1.4463,1.4505,1.4586,1.4652,1.471,1.473,1.4699,1.4698,1.4719,1.4724,1.472,1.4721,1.4452,1.4691,1.4689,1.4688,1.4687,1.4686,1.4217,1.4278,1.4314,1.4381,1.4411,1.4451,1.4508,1.452,1.458,1.4645,1.4634,1.4713,1.4749,1.4824,1.4849,1.4909,1.4877,1.4909,1.4916,1.4924,1.4932,1.4712,1.492,1.492,1.4919,1.4919,1.4918,0,1.443,1.445,1.4512,1.4571,1.4623,1.4589,1.4634,1.4679,1.4749,1.4785,1.4838,1.4919,1.4982,1.4999,1.506,1.5105,1.5092,1.5121,1.5117,1.5121,1.4958,1.4933,1.5131,1.513,1.513,1.513,1.513,1.513,1.4546,1.4646,1.4647,1.4761,1.478,1.4858,1.4886,1.4921,1.495,1.5041,1.5094,1.5104,1.5132,1.5194,1.525,1.5253,1.5276,1.5311,1.5308,1.5155,1.5133,1.5113,1.5089,1.5316,1.5316,1.5465,1.5467,1.5468]}]]